World > North America > United States > Mississippi > Coffeeville  

Coffeeville, MS Hourly Weather Updates

Feedback E-mail the Weather

Quick Clicks

Coffeeville, MS Weather Maps

°F °C°F °C
Coffeeville Weather Map
UTC Time: 5/18/2024, 16:39
Your Time:

Coffeeville, MS Regional Weather

Expires:202405181700;;431032
ASUS44 KJAN 181610
RWRMS 

MISSISSIPPI HOURLY WEATHER ROUNDUP
NATIONAL WEATHER SERVICE JACKSON MS
1100 AM CDT SAT MAY 18 2024

NOTE: "FAIR: INDICATES FEW OR NO CLOUDS BELOW 12,000 FEET WITH NO
SIGNIFICANT WEATHER AND/OR OBSTRUCTIONS TO VISIBILITY.


MSZ001>002-007>008-010>013-018>021-025>028-034>036-181700-
NORTHWEST MISSISSIPPI
  
CITY           SKY/WX    TMP DP  RH WIND       PRES   REMARKS
BATESVILLE     MOSUNNY   75  68  78 CALM      29.86F                  
CLARKSDALE       N/A     79  79 100 W9        29.87F                  
GREENWOOD      PTSUNNY   81  67  62 W7        29.88R                  
GREENVILLE     SUNNY     84  70  62 NW13G20   29.87S                  
OLIVE BRANCH   PTSUNNY   72  66  83 S6        29.86S                  
OXFORD         MOSUNNY   73  64  73 N6        29.88F                  
TUNICA         PTSUNNY   73  70  88 N6        29.88R                  
WINONA         PTSUNNY   80  67  63 W3        29.88S                  
$$


SKY/WX - Weather  TMP - Temperature  DP - Dew Point  RH - Humidity
WIND - Wind Direction/Speed PRES - Barometric Pressure VSB - Visibility
WCI - Wind Chill Index E13G22 Wind - East Wind 13 mph/Gusts of 22 mph

Trending Headlines

Trending Entertainment Headlines

Coffeeville Radar Loop

Use the map search tool if you want to place a location marker on the radar map...

Coffeeville Quick Facts

National Two Day Weather Forecast


E-mail the Coffeeville Weather Forecast

Voice your opinion or tell us about page issues...